Weather History for KOPM - November, 2012

Change the Weather History Date:

Tuesday, November 13, 2012

  Actual Average Record
Temperature  
Mean Temperature 67 °F -  
Max Temperature 68 °F - - ()
Min Temperature 66 °F - - ()
Cooling Degree Days 2    
Growing Degree Days 17 (Base 50)    
Moisture  
Dew Point 53 °F    
Average Humidity 61    
Maximum Humidity 68    
Minimum Humidity 52    
Precipitation  
Precipitation 0.00 in - - ()
Sea Level Pressure  
Sea Level Pressure 30.29 in    
Wind  
Wind Speed 14 mph (NNE)    
Max Wind Speed 30 mph    
Max Gust Speed 33 mph    
Visibility 8 miles    
Events      
T = Trace of Precipitation, MM = Missing Value Source: NWS Daily Summary

Daily Weather History Graph

Daily Weather History Graph

Search for Another Location

Airport or City:

Trip Planner

Search our weather history database for the weather conditions in past years. The results will help you decide how hot, cold, wet, or windy it might be!

Date:

Astronomy

Nov. 13, 2012 Rise Set
Actual Time 6:46 AM CST 5:37 PM CST
Civil Twilight 6:21 AM CST 6:02 PM CST
Nautical Twilight 5:53 AM CST 6:30 PM CST
Astronomical Twilight 5:26 AM CST 6:57 PM CST
Moon 6:24 AM CST (11/13) 5:34 PM CST (11/13)
Length of Visible Light 11h 40m
Length of Day
10h 51m
Waning Crescent, 0% of the Moon is Illuminated
Nov 13
Waning Crescent
Nov 13
New
Nov 20
First Quarter
Nov 28
Full
Dec 6
Last Quarter

Hourly Weather History & Observations

Time (CST) Temp. Dew Point Humidity Pressure Visibility Wind Dir Wind Speed Gust Speed Precip Events Conditions
12:15 AM 68.0 °F 50.0 °F 52% 30.32 in 9.0 mi North 12.7 mph 19.6 mph N/A   Unknown
12:35 AM 68.0 °F 51.8 °F 56% 30.32 in 9.0 mi North 11.5 mph 20.7 mph N/A   Unknown
12:55 AM 68.0 °F 51.8 °F 56% 30.33 in 9.0 mi North 9.2 mph 19.6 mph N/A   Unknown
1:15 AM 68.0 °F 50.0 °F 52% 30.32 in 10.0 mi NNE 10.4 mph 18.4 mph N/A   Unknown
1:35 AM 68.0 °F 50.0 °F 52% 30.32 in 9.0 mi NNE 11.5 mph 17.3 mph N/A   Unknown
1:55 AM 68.0 °F 50.0 °F 52% 30.32 in 10.0 mi NNE 10.4 mph 17.3 mph N/A   Unknown
2:15 AM 68.0 °F 51.8 °F 56% 30.32 in 9.0 mi NNE 10.4 mph 16.1 mph N/A   Unknown
2:55 AM 68.0 °F 51.8 °F 56% 30.31 in 10.0 mi NNE 10.4 mph 19.6 mph N/A   Unknown
3:15 AM 68.0 °F 53.6 °F 60% 30.30 in 10.0 mi North 8.1 mph 17.3 mph N/A   Unknown
3:35 AM 68.0 °F 53.6 °F 60% 30.29 in 9.0 mi NNE 11.5 mph 20.7 mph N/A   Unknown
3:55 AM 68.0 °F 53.6 °F 60% 30.29 in 7.0 mi NNE 12.7 mph 18.4 mph N/A   Unknown
4:15 AM 68.0 °F 55.4 °F 64% 30.28 in 7.0 mi North 11.5 mph - N/A   Unknown
4:35 AM 68.0 °F 55.4 °F 64% 30.29 in 8.0 mi North 11.5 mph 19.6 mph N/A   Unknown
4:55 AM 68.0 °F 57.2 °F 68% 30.29 in 9.0 mi North 12.7 mph - N/A   Unknown
5:15 AM 68.0 °F 57.2 °F 68% 30.29 in 8.0 mi North 12.7 mph 20.7 mph N/A   Unknown
5:35 AM 68.0 °F 55.4 °F 64% 30.29 in 9.0 mi NNE 13.8 mph 23.0 mph N/A   Unknown
5:55 AM 68.0 °F 55.4 °F 64% 30.31 in 9.0 mi NNE 10.4 mph 20.7 mph N/A   Unknown
6:15 AM 68.0 °F 55.4 °F 64% 30.30 in 9.0 mi NNE 11.5 mph 25.3 mph N/A   Unknown
6:35 AM 68.0 °F 57.2 °F 68% 30.30 in 9.0 mi NNE 16.1 mph 26.5 mph N/A   Unknown
6:55 AM 68.0 °F 55.4 °F 64% 30.30 in 9.0 mi North - - N/A   Unknown
7:15 AM 68.0 °F 53.6 °F 60% 30.30 in 7.0 mi NNE 19.6 mph 33.4 mph N/A   Overcast
7:35 AM 68.0 °F 53.6 °F 60% 30.32 in 8.0 mi NNE 15.0 mph 25.3 mph N/A   Overcast
7:55 AM 68.0 °F 53.6 °F 60% 30.34 in 9.0 mi NNE 12.7 mph 28.8 mph N/A   Overcast
8:15 AM 68.0 °F 53.6 °F 60% 30.34 in 7.0 mi NNE 18.4 mph - N/A   Mostly Cloudy
8:35 AM 68.0 °F 51.8 °F 56% 30.34 in 8.0 mi NNE 13.8 mph 27.6 mph N/A   Mostly Cloudy
8:55 AM 68.0 °F 51.8 °F 56% 30.35 in 5.0 mi NNE 12.7 mph 23.0 mph N/A   Haze
9:15 AM 68.0 °F 53.6 °F 60% 30.35 in 8.0 mi NNE 16.1 mph - N/A   Mostly Cloudy
9:30 AM 68.0 °F 51.8 °F 56% 30.35 in 7.0 mi NNE 15.0 mph 23.0 mph N/A   Mostly Cloudy
9:55 AM 68.0 °F 53.6 °F 60% 30.34 in 8.0 mi NNE 17.3 mph 28.8 mph N/A   Unknown
10:15 AM 68.0 °F 53.6 °F 60% 30.34 in 8.0 mi NNE 13.8 mph 26.5 mph N/A   Partly Cloudy
10:35 AM 68.0 °F 51.8 °F 56% 30.33 in 9.0 mi NNE 21.9 mph - N/A   Partly Cloudy
10:55 AM 68.0 °F 53.6 °F 60% 30.33 in - NNE 15.0 mph 26.5 mph N/A   Unknown
11:15 AM 68.0 °F 53.6 °F 60% 30.33 in 4.0 mi NNE 17.3 mph 28.8 mph N/A   Haze
11:35 AM 68.0 °F 51.8 °F 56% 30.32 in 7.0 mi NNE 18.4 mph 26.5 mph N/A   Scattered Clouds
11:55 AM 68.0 °F 53.6 °F 60% 30.31 in 4.0 mi NNE 16.1 mph 23.0 mph N/A   Haze
12:15 PM 68.0 °F 53.6 °F 60% 30.31 in 5.0 mi NE 18.4 mph 25.3 mph N/A   Haze
12:35 PM 68.0 °F 53.6 °F 60% 30.29 in 9.0 mi NNE 15.0 mph 23.0 mph N/A   Scattered Clouds
12:55 PM 68.0 °F 51.8 °F 56% 30.29 in 9.0 mi NNE 13.8 mph 21.9 mph N/A   Scattered Clouds
1:15 PM 68.0 °F 53.6 °F 60% 30.28 in 9.0 mi NNE 15.0 mph 20.7 mph N/A   Mostly Cloudy
1:35 PM 68.0 °F 51.8 °F 56% 30.27 in 7.0 mi NNE 9.2 mph 16.1 mph N/A   Mostly Cloudy
1:55 PM 68.0 °F 51.8 °F 56% 30.26 in 7.0 mi NNE 12.7 mph 23.0 mph N/A   Mostly Cloudy
2:15 PM 68.0 °F 51.8 °F 56% 30.26 in 7.0 mi NNE 13.8 mph 20.7 mph N/A   Mostly Cloudy
2:35 PM 68.0 °F 51.8 °F 56% 30.25 in 4.0 mi NNE 9.2 mph 19.6 mph N/A   Haze
2:55 PM 68.0 °F 51.8 °F 56% 30.24 in 8.0 mi NNE 16.1 mph 24.2 mph N/A   Partly Cloudy
3:15 PM 68.0 °F 53.6 °F 60% 30.24 in 7.0 mi NNE 12.7 mph 24.2 mph N/A   Clear
3:35 PM 68.0 °F 53.6 °F 60% 30.23 in 4.0 mi NE 20.7 mph - N/A   Haze
3:55 PM 68.0 °F 53.6 °F 60% 30.23 in 6.0 mi NNE 20.7 mph 27.6 mph N/A   Haze
4:15 PM 68.0 °F 51.8 °F 56% 30.23 in 7.0 mi NNE 16.1 mph 26.5 mph N/A   Partly Cloudy
4:35 PM 68.0 °F 53.6 °F 60% 30.23 in 7.0 mi NNE 16.1 mph 23.0 mph N/A   Mostly Cloudy
4:55 PM 68.0 °F 51.8 °F 56% 30.24 in 8.0 mi NNE 10.4 mph 20.7 mph N/A   Mostly Cloudy
5:15 PM 68.0 °F 53.6 °F 60% 30.24 in 7.0 mi NNE 10.4 mph 21.9 mph N/A   Overcast
5:35 PM 68.0 °F 53.6 °F 60% 30.24 in 7.0 mi NNE 10.4 mph 21.9 mph N/A   Overcast
5:55 PM 68.0 °F 53.6 °F 60% 30.24 in 7.0 mi NNE 16.1 mph - N/A   Unknown
6:15 PM 68.0 °F 53.6 °F 60% 30.24 in 9.0 mi NNE 16.1 mph - N/A   Unknown
6:35 PM 68.0 °F 51.8 °F 56% 30.25 in 9.0 mi NNE 9.2 mph 18.4 mph N/A   Unknown
6:55 PM 66.2 °F 53.6 °F 64% 30.24 in 4.0 mi NNE 17.3 mph 24.2 mph N/A   Haze
7:15 PM 66.2 °F 53.6 °F 64% 30.23 in 7.0 mi NE 26.5 mph - N/A   Mostly Cloudy
7:35 PM 66.2 °F 53.6 °F 64% 30.23 in 8.0 mi NE 26.5 mph - N/A   Overcast
7:55 PM 66.2 °F 53.6 °F 64% 30.24 in 7.0 mi NE 27.6 mph - N/A   Mostly Cloudy
8:15 PM 66.2 °F 55.4 °F 68% 30.23 in 9.0 mi NE 29.9 mph - N/A   Mostly Cloudy
8:35 PM 66.2 °F 55.4 °F 68% 30.28 in 7.0 mi North 9.2 mph 25.3 mph N/A   Overcast
8:55 PM 66.2 °F 55.4 °F 68% 30.27 in 9.0 mi NNE 9.2 mph 20.7 mph N/A   Overcast
9:15 PM 66.2 °F 55.4 °F 68% 30.28 in 10.0 mi NNE 16.1 mph - N/A   Overcast
9:35 PM 66.2 °F 55.4 °F 68% 30.28 in 8.0 mi NNE 10.4 mph 19.6 mph N/A   Overcast
9:55 PM 66.2 °F 55.4 °F 68% 30.27 in 8.0 mi NNE 16.1 mph - N/A   Overcast
10:15 PM 66.2 °F 55.4 °F 68% 30.27 in 9.0 mi NE 18.4 mph 24.2 mph N/A   Overcast
10:35 PM 66.2 °F 55.4 °F 68% 30.26 in 9.0 mi NE 23.0 mph 29.9 mph N/A   Mostly Cloudy
10:55 PM 66.2 °F 55.4 °F 68% 30.27 in 8.0 mi NE 18.4 mph - N/A   Mostly Cloudy
11:15 PM 66.2 °F 53.6 °F 64% 30.27 in 9.0 mi NNE 13.8 mph 21.9 mph N/A   Overcast
11:35 PM 66.2 °F 55.4 °F 68% 30.26 in 8.0 mi NNE 13.8 mph 20.7 mph N/A   Overcast
11:55 PM 66.2 °F 53.6 °F 64% 30.26 in 9.0 mi NNE 10.4 mph 21.9 mph N/A   Overcast